Regional Weather Roundup
Issued by NWS

Home | Current Version | Previous Version | Text Only | Print | Product List | Glossary On
Versions: 1 2 3 4 5 6 7 8 9 10 11 12 13 14 15 16 17 18 19 20 21 22 23 24 25 26 27 28 29 30 31 32 33 34 35 36 37 38 39 40 41 42 43 44 45 46 47 48 49 50
000
ASUS44 KBMX 282210
RWRAL

ALABAMA REGIONAL WEATHER ROUNDUP
NATIONAL WEATHER SERVICE BIRMINGHAM AL
500 PM CDT MON JUL 28 2014

NOTE: "FAIR" INDICATES FEW OR NO CLOUDS BELOW 12,000 FEET
WITH NO SIGNIFICANT WEATHER AND/OR OBSTRUCTIONS TO VISIBILITY.

THE REMARK "TC" DENOTES TEMPERATURE IN DEGREES CELSIUS.

ALZ001>011-014-016>018-020-282300-
NORTH ALABAMA

CITY           SKY/WX    TMP DP  RH WIND       PRES   REMARKS
MUSCLE SHOALS  MOSUNNY   85  60  42 NW13      30.01S
HUNTSVILLE     MOSUNNY   82  60  47 N14G22    29.98S
DECATUR        MOSUNNY   81  61  50 N14       29.99S
HALEYVILLE     FAIR      81  63  54 N8        30.03F
GADSDEN        MOSUNNY   84  61  45 NW8G16    29.95R
$$

ALZ012-013-022-023-030>036-040>044-282300-
WEST CENTRAL ALABAMA

CITY           SKY/WX    TMP DP  RH WIND       PRES   REMARKS
TUSCALOOSA     SUNNY     90  63  40 N12       29.95S HX  91
$$

ALZ015-024>027-033>036-040>044-282300-
CENTRAL ALABAMA

CITY           SKY/WX    TMP DP  RH WIND       PRES   REMARKS
BIRMINGHAM     MOSUNNY   89  58  34 NW14G22   29.97R
MONTGOMERY     MOSUNNY   96  69  41 W15G21    29.89F HX 102
SHELBY CO ARPT SUNNY     92  61  35 NW12G20   29.94R HX  92
MAXWELL AFB    MOSUNNY   94  72  48 W9        29.90S HX 102
GREENVILLE     FAIR      80  72  76 W6        29.93F THUNDER
$$

ALZ019-021-028-029-037-038-045>048-282300-
EAST CENTRAL ALABAMA

CITY           SKY/WX    TMP DP  RH WIND       PRES   REMARKS
ANNISTON       SUNNY     89  56  32 N15G22    29.93R
ALEXANDER CITY HAZE      96  53  23 NW9G16    29.93S VSB 1/2 HX  93
AUBURN         SUNNY     88  70  55 W9        29.96R HX  92
$$

ALZ051>064-282300-
SOUTHWEST ALABAMA

CITY           SKY/WX    TMP DP  RH WIND       PRES   REMARKS
MOBILE         PTSUNNY   91  75  59 W9        29.97S HX 101
BROOKLEY FIELD MOSUNNY   93  74  53 W10       29.96S HX 103
EVERGREEN      CLOUDY    80  73  79 W3        29.95F
$$

ALZ049-050-065>069-282300-
SOUTHEAST ALABAMA

CITY           SKY/WX    TMP DP  RH WIND       PRES   REMARKS
DOTHAN         TSTM      76  69  79 S9G46     29.98R VSB 3/4
OZARK          TSTM      75  72  88 W9G25     29.93R VSB 1
TROY           LGT RAIN  89  76  65 SW9       29.92F HX 100
EUFAULA        FAIR      87  73  62 VRB6      29.89F HX  94
$$


USA.gov is the U.S. government's official web portal to all federal, state and local government web resources and services.